COSMOS 1275 DEB, 12668

Orbit data source: Space-Track

COSMOS 1275 DEB, 12668 is space debris in LEO originally from a launch on Thu, 04 Jun 1981 UTC launched from the Plesetsk Missile And Space Complex (PKMTR). Debris objects in space refer to the collection of defunct objects orbiting the Earth. Examples of debris include non-operational satellites, rocket bodies, and fragments generated from explosions, collisions, or faulty payload assembly.

Loading next visibility...
Identifier
12668, 1981-053Y
Orbit
LEO
Country
Flag of CISCIS
Related business
Manufacturer
Unknown
Mission
Spacecraft
Bus & Motor
Unknown
Mass
Unknown
Launch date (UTC)
1981-06-04 (45 years ago)
Launch vehicle
Unknown
Launch site
Plesetsk Missile And Space Complex (PKMTR)
Object type
Payload
Rocket body
Debris
Shape & HBR
Unknown shape, 0.1 m
Radar Cross Section
Small (<0.1 m²)

Expand to show TLE details & history
Last TLE update: 11 hours ago

TLE from 11 hours ago
0 COSMOS 1275 DEB
1 12668U 81053Y   26119.48299505  .00000787  00000-0  48649-3 0  9997
2 12668  83.1009 120.8071 0052860 354.9291 131.6741 14.03471206279457
Epoch: 2026-04-29T11:35Z
TLE epoch observation values (Epoch: 2026-04-29T11:35:30.772Z)
Latitude
52.4986°
Longitude
-99.53876°
Altitude
915.979 km
Speed
7.386 km/s
True Right ascension
19h 27m 07s
True Declination
52° 20' 10"
Sunlit
Object was in daylight at epoch
Visualization orbit readout
Latitude
Unknown
Longitude
Unknown
Altitude
Unknown
Speed
Unknown
Apparent Right ascension
Unknown
Apparent Declination
Unknown
Sunlit
N/A
Visualization observer readout
Local Sidereal Time
05:45:22
Azimuth
Unknown
Elevation
Unknown
Doppler factor
Unknown
Orbital elements
Apogee altitude
917.264 km
Perigee altitude
840.542 km
Semi-major axis
7,257.04 km
Eccentricity
0.00529
Inclination
83.1009°
RAAN
120.8071°
Arg. of periapsis
354.9291°
True anomaly
132.12456°
Mean anomaly
131.6741°
Eccentric anomaly
131.89953°
Mean motion
3.51078 °/min
Orbital period
102.54 mins
BSTAR
0.00048649
Loading maneuver chart data...
Computing Atmospheric mass density...
Loading historical data...
Loading historical data...
Loading historical data...
Loading historical data...
Loading historical data...
Loading historical data...
Loading historical data...

Documentation

Showing up to 5 results
|